Flag for U.S.A. Weather past 2 weeks in Cleveland, Ohio, U.S.A.

Now
14 °F

Passing clouds.


Feels Like: 1 °F
Forecast: 4 / 24 °F
Wind: 10 mph from Southwest

Location: Cleveland-Hopkins International Airport

Current Time: Mar 6, 2015 at 11:03:17 AM

Latest Report: Mar 6, 2015 at 9:51 AM


Visibility: 10 mi

Pressure: 30.59 "Hg

Humidity: 67%

Dew point: 5 °F

Location of ClevelandLocation

Historic Weather in Cleveland — Graph

°F

Cleveland temperature yesterday

Maximum temperature yesterday: 19 °F (at 12:51 AM)
Minimum temperature yesterday: 5 °F (at 11:51 PM)
Average temperature yesterday: 13 °F

Past Weeks' High & Low Weather Summary

 TemperatureHumidityPressure
High41 °F (Mar 3, 5:51 PM)92% (Feb 21, 1:51 PM)30.86 "Hg (Feb 21, 1:51 PM)
Low-13 °F (Feb 20, 5:51 AM)33% (Feb 28, 2:51 PM)29.67 "Hg (Mar 3, 4:51 PM)
Average15 °F68%30.31 "Hg
* Reported Feb 19 9:51 AM — Mar 6 9:51 AM, Cleveland, Weather by CustomWeather, © 2015

Note: Actual official high and low records may vary slightly from our data, if they occured in-between our weather recording intervals... More about our weather records

Advertising

Cleveland weather history for previous 24 hours

 ConditionsComfort  
Time TempWeatherWind HumidityBarometerVisibility
9:51 AM
Fri, Mar 6
14 °FPassing clouds.10 mph67%30.59 "Hg10 mi
8:51 AM11 °FSunny.8 mph70%30.59 "Hg10 mi
7:51 AM5 °FSunny.7 mph76%30.58 "Hg10 mi
6:51 AM5 °FClear.10 mph76%30.59 "Hg10 mi
5:51 AM4 °FClear.7 mph76%30.60 "Hg10 mi
4:51 AM5 °FClear.6 mph76%30.58 "Hg10 mi
3:51 AM4 °FClear.No wind80%30.58 "Hg10 mi
2:51 AM5 °FClear.7 mph76%30.58 "Hg10 mi
1:51 AM4 °FClear.5 mph76%30.59 "Hg10 mi
12:51 AM4 °FClear.5 mph76%30.58 "Hg10 mi
11:51 PM
Thu, Mar 5
5 °FClear.3 mph72%30.59 "Hg10 mi
10:51 PM8 °FClear.5 mph66%30.59 "Hg10 mi
9:51 PM10 °FClear.3 mph64%30.58 "Hg10 mi
8:51 PM10 °FClear.3 mph64%30.57 "Hg10 mi
7:51 PM12 °FPassing clouds.No wind58%30.56 "Hg10 mi
6:51 PM12 °FPassing clouds.3 mph58%30.54 "Hg10 mi
5:51 PM13 °FPartly sunny.7 mph56%30.51 "Hg10 mi
4:51 PM15 °FScattered clouds.12 mph51%30.47 "Hg10 mi
3:51 PM14 °FScattered clouds.14 mph56%30.46 "Hg10 mi
2:51 PM14 °FBroken clouds.9 mph58%30.44 "Hg10 mi
1:51 PM14 °FScattered clouds.10 mph58%30.43 "Hg10 mi
12:51 PM14 °FBroken clouds.14 mph61%30.43 "Hg10 mi
11:51 AM13 °FOvercast.10 mph61%30.43 "Hg10 mi
Weather by CustomWeather, © 2015

See weather overviewHow to use our weather pages